Time,TemperatureF,DewpointF,PressureIn,WindDirection,WindDirectionDegrees,WindSpeedMPH,WindSpeedGustMPH,Humidity,HourlyPrecipIn,Conditions,Clouds,dailyrainin,SolarRadiationWatts/m^2,SoftwareType,DateUTC
2013-05-13 00:10:00,76.1,59.0,30.07,North,360,0.0,-999.0,56,-99.99,,,0.00,0,weatherlink.com 1.10,2013-05-13 04:10:00,
2013-05-13 00:25:00,75.3,59.0,30.07,North,360,0.0,-999.0,58,-99.99,,,0.00,0,weatherlink.com 1.10,2013-05-13 04:25:00,
2013-05-13 00:40:00,75.0,59.0,30.07,North,360,4.0,-999.0,57,-99.99,,,0.00,0,weatherlink.com 1.10,2013-05-13 04:40:00,
2013-05-13 00:55:00,74.6,58.0,30.06,North,360,0.0,-999.0,56,-99.99,,,0.00,0,weatherlink.com 1.10,2013-05-13 04:55:00,
2013-05-13 01:10:00,74.4,58.0,30.06,North,360,0.0,-999.0,57,-99.99,,,0.00,0,weatherlink.com 1.10,2013-05-13 05:10:00,
2013-05-13 01:25:00,74.0,59.0,30.05,North,360,4.0,-999.0,60,-99.99,,,0.00,0,weatherlink.com 1.10,2013-05-13 05:25:00,
2013-05-13 01:40:00,73.4,59.0,30.04,North,360,2.0,-999.0,60,-99.99,,,0.00,0,weatherlink.com 1.10,2013-05-13 05:40:00,
2013-05-13 01:55:00,73.1,59.0,30.05,North,360,2.0,-999.0,61,-99.99,,,0.00,0,weatherlink.com 1.10,2013-05-13 05:55:00,
2013-05-13 02:10:00,72.5,59.0,30.05,North,360,3.0,-999.0,63,-99.99,,,0.00,0,weatherlink.com 1.10,2013-05-13 06:10:00,
2013-05-13 02:25:00,72.1,58.0,30.05,North,360,2.0,-999.0,62,-99.99,,,0.00,0,weatherlink.com 1.10,2013-05-13 06:25:00,
2013-05-13 02:40:00,71.9,59.0,30.05,North,360,1.0,-999.0,63,-99.99,,,0.00,0,weatherlink.com 1.10,2013-05-13 06:40:00,
2013-05-13 02:55:00,71.2,59.0,30.05,North,360,2.0,-999.0,65,-99.99,,,0.00,0,weatherlink.com 1.10,2013-05-13 06:55:00,
2013-05-13 03:10:00,71.3,59.0,30.05,North,360,2.0,-999.0,65,-99.99,,,0.00,0,weatherlink.com 1.10,2013-05-13 07:10:00,
2013-05-13 03:25:00,70.7,59.0,30.05,North,360,3.0,-999.0,66,-99.99,,,0.00,0,weatherlink.com 1.10,2013-05-13 07:25:00,
2013-05-13 03:40:00,69.7,58.0,30.05,North,360,4.0,-999.0,66,-99.99,,,0.00,0,weatherlink.com 1.10,2013-05-13 07:40:00,
2013-05-13 03:55:00,69.9,59.0,30.06,North,360,2.0,-999.0,68,-99.99,,,0.00,0,weatherlink.com 1.10,2013-05-13 07:55:00,
2013-05-13 04:10:00,69.1,58.0,30.06,North,360,3.0,-999.0,68,-99.99,,,0.00,0,weatherlink.com 1.10,2013-05-13 08:10:00,
2013-05-13 04:25:00,68.9,57.0,30.06,North,360,5.0,-999.0,67,-99.99,,,0.00,0,weatherlink.com 1.10,2013-05-13 08:25:00,
2013-05-13 04:40:00,68.9,57.0,30.07,North,360,4.0,-999.0,65,-99.99,,,0.00,0,weatherlink.com 1.10,2013-05-13 08:40:00,
2013-05-13 04:55:00,68.8,54.0,30.07,North,360,5.0,-999.0,60,-99.99,,,0.00,0,weatherlink.com 1.10,2013-05-13 08:55:00,
2013-05-13 05:10:00,68.5,54.0,30.08,North,360,7.0,-999.0,60,-99.99,,,0.00,0,weatherlink.com 1.10,2013-05-13 09:10:00,
2013-05-13 05:25:00,68.0,52.0,30.08,North,360,3.0,-999.0,56,-99.99,,,0.00,0,weatherlink.com 1.10,2013-05-13 09:25:00,
2013-05-13 05:40:00,67.8,50.0,30.08,North,360,12.0,-999.0,54,-99.99,,,0.00,0,weatherlink.com 1.10,2013-05-13 09:40:00,
2013-05-13 05:55:00,67.2,53.0,30.09,North,360,2.0,-999.0,60,-99.99,,,0.00,0,weatherlink.com 1.10,2013-05-13 09:55:00,
2013-05-13 06:10:00,66.8,51.0,30.09,SW,236,6.0,-999.0,58,-99.99,,,0.00,0,weatherlink.com 1.10,2013-05-13 10:10:00,
2013-05-13 06:25:00,66.5,51.0,30.10,SW,228,2.0,-999.0,57,-99.99,,,0.00,0,weatherlink.com 1.10,2013-05-13 10:25:00,
2013-05-13 06:40:00,66.6,51.0,30.11,North,360,5.0,-999.0,57,-99.99,,,0.00,0,weatherlink.com 1.10,2013-05-13 10:40:00,
2013-05-13 06:55:00,66.1,50.0,30.11,North,360,6.0,-999.0,56,-99.99,,,0.00,9,weatherlink.com 1.10,2013-05-13 10:55:00,
2013-05-13 07:10:00,65.9,48.0,30.12,North,360,4.0,-999.0,53,-99.99,,,0.00,23,weatherlink.com 1.10,2013-05-13 11:10:00,
2013-05-13 07:25:00,65.4,48.0,30.12,WSW,253,2.0,-999.0,54,-99.99,,,0.00,30,weatherlink.com 1.10,2013-05-13 11:25:00,
2013-05-13 07:40:00,65.5,48.0,30.12,North,360,6.0,-999.0,54,-99.99,,,0.00,47,weatherlink.com 1.10,2013-05-13 11:40:00,
2013-05-13 07:55:00,65.4,47.0,30.13,North,360,5.0,-999.0,51,-99.99,,,0.00,54,weatherlink.com 1.10,2013-05-13 11:55:00,
2013-05-13 08:10:00,65.5,46.0,30.14,North,360,7.0,-999.0,50,-99.99,,,0.00,69,weatherlink.com 1.10,2013-05-13 12:10:00,
2013-05-13 08:25:00,65.6,47.0,30.14,North,360,0.0,-999.0,52,-99.99,,,0.00,77,weatherlink.com 1.10,2013-05-13 12:25:00,
2013-05-13 08:40:00,65.6,47.0,30.15,WSW,252,4.0,-999.0,52,-99.99,,,0.00,83,weatherlink.com 1.10,2013-05-13 12:40:00,
2013-05-13 08:55:00,65.5,48.0,30.16,North,360,2.0,-999.0,53,-99.99,,,0.00,141,weatherlink.com 1.10,2013-05-13 12:55:00,
2013-05-13 09:10:00,65.5,47.0,30.16,North,360,2.0,-999.0,52,-99.99,,,0.00,216,weatherlink.com 1.10,2013-05-13 13:10:00,
2013-05-13 09:25:00,65.9,47.0,30.16,North,360,1.0,-999.0,51,-99.99,,,0.00,316,weatherlink.com 1.10,2013-05-13 13:25:00,
2013-05-13 09:40:00,66.9,46.0,30.17,WNW,301,4.0,-999.0,47,-99.99,,,0.00,214,weatherlink.com 1.10,2013-05-13 13:40:00,
2013-05-13 09:55:00,68.2,48.0,30.17,North,360,2.0,-999.0,48,-99.99,,,0.00,705,weatherlink.com 1.10,2013-05-13 13:55:00,
2013-05-13 10:10:00,69.5,47.0,30.17,North,360,0.0,-999.0,44,-99.99,,,0.00,649,weatherlink.com 1.10,2013-05-13 14:10:00,
2013-05-13 10:25:00,70.2,47.0,30.17,North,360,3.0,-999.0,43,-99.99,,,0.00,705,weatherlink.com 1.10,2013-05-13 14:25:00,
2013-05-13 10:40:00,71.2,45.0,30.18,North,360,5.0,-999.0,39,-99.99,,,0.00,835,weatherlink.com 1.10,2013-05-13 14:40:00,
2013-05-13 10:55:00,71.4,46.0,30.18,North,360,3.0,-999.0,40,-99.99,,,0.00,279,weatherlink.com 1.10,2013-05-13 14:55:00,
2013-05-13 11:10:00,70.8,48.0,30.18,North,360,3.0,-999.0,44,-99.99,,,0.00,675,weatherlink.com 1.10,2013-05-13 15:10:00,
2013-05-13 11:25:00,72.6,45.0,30.19,North,360,3.0,-999.0,38,-99.99,,,0.00,970,weatherlink.com 1.10,2013-05-13 15:25:00,
2013-05-13 11:40:00,72.8,50.0,30.19,North,360,5.0,-999.0,44,-99.99,,,0.00,809,weatherlink.com 1.10,2013-05-13 15:40:00,
2013-05-13 11:55:00,73.4,48.0,30.18,SW,234,11.0,-999.0,41,-99.99,,,0.00,802,weatherlink.com 1.10,2013-05-13 15:55:00,
2013-05-13 12:10:00,74.3,50.0,30.18,North,360,3.0,-999.0,42,-99.99,,,0.00,802,weatherlink.com 1.10,2013-05-13 16:10:00,
2013-05-13 12:25:00,74.4,48.0,30.18,North,360,6.0,-999.0,40,-99.99,,,0.00,773,weatherlink.com 1.10,2013-05-13 16:25:00,
2013-05-13 12:40:00,75.6,47.0,30.17,WSW,238,11.0,-999.0,37,-99.99,,,0.00,863,weatherlink.com 1.10,2013-05-13 16:40:00,
2013-05-13 12:55:00,76.8,48.0,30.17,SW,236,7.0,-999.0,36,-99.99,,,0.00,882,weatherlink.com 1.10,2013-05-13 16:55:00,
2013-05-13 13:10:00,77.0,47.0,30.16,North,360,1.0,-999.0,34,-99.99,,,0.00,712,weatherlink.com 1.10,2013-05-13 17:10:00,
2013-05-13 13:25:00,77.2,43.0,30.15,SSW,198,3.0,-999.0,30,-99.99,,,0.00,612,weatherlink.com 1.10,2013-05-13 17:25:00,
2013-05-13 13:40:00,77.7,46.0,30.15,North,360,11.0,-999.0,33,-99.99,,,0.00,585,weatherlink.com 1.10,2013-05-13 17:40:00,
2013-05-13 13:55:00,78.2,47.0,30.16,North,360,8.0,-999.0,33,-99.99,,,0.00,657,weatherlink.com 1.10,2013-05-13 17:55:00,
2013-05-13 14:10:00,78.4,44.0,30.15,North,360,6.0,-999.0,29,-99.99,,,0.00,744,weatherlink.com 1.10,2013-05-13 18:10:00,
2013-05-13 14:25:00,79.4,45.0,30.15,North,360,5.0,-999.0,30,-99.99,,,0.00,710,weatherlink.com 1.10,2013-05-13 18:25:00,
2013-05-13 14:40:00,79.2,46.0,30.15,North,360,5.0,-999.0,31,-99.99,,,0.00,937,weatherlink.com 1.10,2013-05-13 18:40:00,
2013-05-13 14:55:00,78.9,45.0,30.14,North,360,6.0,-999.0,30,-99.99,,,0.00,800,weatherlink.com 1.10,2013-05-13 18:55:00,
2013-05-13 15:10:00,79.2,42.0,30.14,SW,233,6.0,-999.0,27,-99.99,,,0.00,837,weatherlink.com 1.10,2013-05-13 19:10:00,
2013-05-13 15:25:00,79.1,43.0,30.14,SSW,204,4.0,-999.0,28,-99.99,,,0.00,775,weatherlink.com 1.10,2013-05-13 19:25:00,
2013-05-13 15:40:00,79.2,47.0,30.13,North,360,6.0,-999.0,32,-99.99,,,0.00,700,weatherlink.com 1.10,2013-05-13 19:40:00,
2013-05-13 15:55:00,78.8,43.0,30.12,North,360,3.0,-999.0,28,-99.99,,,0.00,371,weatherlink.com 1.10,2013-05-13 19:55:00,
2013-05-13 16:10:00,79.1,44.0,30.12,North,360,2.0,-999.0,29,-99.99,,,0.00,557,weatherlink.com 1.10,2013-05-13 20:10:00,
2013-05-13 16:25:00,78.8,46.0,30.12,SW,234,7.0,-999.0,31,-99.99,,,0.00,454,weatherlink.com 1.10,2013-05-13 20:25:00,
2013-05-13 16:40:00,78.7,44.0,30.12,WSW,238,2.0,-999.0,29,-99.99,,,0.00,410,weatherlink.com 1.10,2013-05-13 20:40:00,
2013-05-13 16:55:00,78.8,46.0,30.12,WSW,238,4.0,-999.0,31,-99.99,,,0.00,248,weatherlink.com 1.10,2013-05-13 20:55:00,
2013-05-13 17:10:00,79.0,45.0,30.12,North,360,3.0,-999.0,30,-99.99,,,0.00,506,weatherlink.com 1.10,2013-05-13 21:10:00,
2013-05-13 17:25:00,78.7,44.0,30.11,North,360,5.0,-999.0,29,-99.99,,,0.00,531,weatherlink.com 1.10,2013-05-13 21:25:00,
2013-05-13 17:40:00,79.1,47.0,30.12,North,360,4.0,-999.0,32,-99.99,,,0.00,304,weatherlink.com 1.10,2013-05-13 21:40:00,
2013-05-13 17:55:00,79.0,47.0,30.11,North,360,1.0,-999.0,32,-99.99,,,0.00,415,weatherlink.com 1.10,2013-05-13 21:55:00,
2013-05-13 18:25:00,79.4,43.0,30.11,SW,235,7.0,-999.0,27,-99.99,,,0.00,292,weatherlink.com 1.10,2013-05-13 22:25:00,
2013-05-13 18:40:00,79.2,43.0,30.11,SW,215,2.0,-999.0,28,-99.99,,,0.00,237,weatherlink.com 1.10,2013-05-13 22:40:00,
2013-05-13 18:55:00,79.1,46.0,30.11,North,360,5.0,-999.0,31,-99.99,,,0.00,190,weatherlink.com 1.10,2013-05-13 22:55:00,
2013-05-13 19:10:00,79.3,47.0,30.11,SW,234,3.0,-999.0,32,-99.99,,,0.00,134,weatherlink.com 1.10,2013-05-13 23:10:00,
2013-05-13 19:25:00,78.5,45.0,30.11,North,360,3.0,-999.0,31,-99.99,,,0.00,84,weatherlink.com 1.10,2013-05-13 23:25:00,
2013-05-13 19:40:00,77.9,44.0,30.12,North,360,6.0,-999.0,30,-99.99,,,0.00,42,weatherlink.com 1.10,2013-05-13 23:40:00,
2013-05-13 19:55:00,77.6,44.0,30.12,North,360,3.0,-999.0,30,-99.99,,,0.00,16,weatherlink.com 1.10,2013-05-13 23:55:00,
2013-05-13 20:10:00,77.0,47.0,30.13,North,360,1.0,-999.0,35,-99.99,,,0.00,5,weatherlink.com 1.10,2013-05-14 00:10:00,
2013-05-13 20:25:00,75.8,45.0,30.13,North,360,0.0,-999.0,34,-99.99,,,0.00,0,weatherlink.com 1.10,2013-05-14 00:25:00,
2013-05-13 20:40:00,75.4,45.0,30.14,North,360,2.0,-999.0,34,-99.99,,,0.00,0,weatherlink.com 1.10,2013-05-14 00:40:00,
2013-05-13 20:55:00,75.0,46.0,30.15,North,360,3.0,-999.0,36,-99.99,,,0.00,0,weatherlink.com 1.10,2013-05-14 00:55:00,
2013-05-13 21:10:00,74.1,47.0,30.15,North,360,0.0,-999.0,38,-99.99,,,0.00,0,weatherlink.com 1.10,2013-05-14 01:10:00,
2013-05-13 21:25:00,73.7,46.0,30.16,North,360,2.0,-999.0,38,-99.99,,,0.00,0,weatherlink.com 1.10,2013-05-14 01:25:00,
2013-05-13 21:40:00,72.9,47.0,30.17,North,360,6.0,-999.0,40,-99.99,,,0.00,0,weatherlink.com 1.10,2013-05-14 01:40:00,
2013-05-13 21:55:00,72.3,47.0,30.17,North,360,0.0,-999.0,41,-99.99,,,0.00,0,weatherlink.com 1.10,2013-05-14 01:55:00,
2013-05-13 22:10:00,71.3,48.0,30.18,North,360,5.0,-999.0,43,-99.99,,,0.00,0,weatherlink.com 1.10,2013-05-14 02:10:00,
2013-05-13 22:25:00,69.7,49.0,30.18,North,360,1.0,-999.0,48,-99.99,,,0.00,0,weatherlink.com 1.10,2013-05-14 02:25:00,
2013-05-13 22:40:00,69.4,48.0,30.18,North,360,3.0,-999.0,46,-99.99,,,0.00,0,weatherlink.com 1.10,2013-05-14 02:40:00,
2013-05-13 22:55:00,69.4,48.0,30.18,North,360,3.0,-999.0,47,-99.99,,,0.00,0,weatherlink.com 1.10,2013-05-14 02:55:00,
2013-05-13 23:10:00,68.6,49.0,30.19,North,360,0.0,-999.0,50,-99.99,,,0.00,0,weatherlink.com 1.10,2013-05-14 03:10:00,
2013-05-13 23:25:00,68.6,48.0,30.19,North,360,1.0,-999.0,48,-99.99,,,0.00,0,weatherlink.com 1.10,2013-05-14 03:25:00,
2013-05-13 23:40:00,68.3,47.0,30.19,North,360,5.0,-999.0,47,-99.99,,,0.00,0,weatherlink.com 1.10,2013-05-14 03:40:00,
2013-05-13 23:55:00,67.0,48.0,30.19,North,360,3.0,-999.0,50,-99.99,,,0.00,0,weatherlink.com 1.10,2013-05-14 03:55:00,